Location: San Bernardino
(34.1083°N, 117.2898°W)
Time: 16:03:13
(UTC+00:00)

Chandra Rocket (1) - Pass Details

Date: 13 April 2024
Orbit: 293 x 10891 km, 28.4° (Epoch: 26 May)

Event Time Altitude Azimuth Distance (km) Brightness Sun altitude
Exits shadow 12:32:59 14° 239° (WSW) 1,453 3.3 -10.2°
Maximum altitude 12:35:44 45° 168° (SSE) 1,000 3.1 -9.7°
Drops below altitude 10° 12:44:11 10° 98° (E) 4,272 7.5 -8.0°
Sets 12:50:46 0° 95° (E) 6,863 8.9 -6.7°
